CW1792 Weather Reports


Display with metric or nautical units.
time (UTC)temp
F
wind
direction
speed
MPH
gust
MPH
rain 1hr
in
rain 24hr
in
rain mn
in
humidity
%
barometer
mb
20220702072231 60 96 1.0 3.0 0.00 0.00 0.00 79 1014.9
20220702071730 60 97 2.0 3.0 0.00 0.00 0.00 79 1014.9
20220702071231 60 88 2.0 5.0 0.00 0.00 0.00 79 1014.9
20220702070731 60 77 1.0 3.0 0.00 0.00 0.00 79 1014.9
20220702070231 60 104 0.0 3.0 0.00 0.00 0.00 78 1014.9
20220702065731 60 102 3.0 5.0 0.00 0.00 0.00 79 1015.0
20220702065230 60 114 1.0 2.0 0.00 0.00 0.00 78 1015.0
20220702064731 60 112 1.0 3.0 0.00 0.00 0.00 79 1015.0
20220702064231 60 92 0.0 2.0 0.00 0.00 0.00 79 1015.0
20220702063730 60 91 1.0 2.0 0.00 0.00 0.00 79 1015.0
20220702063231 60 86 1.0 3.0 0.00 0.00 0.00 79 1015.0
20220702062731 60 75 1.0 3.0 0.00 0.00 0.00 79 1015.1
20220702062231 60 70 1.0 3.0 0.00 0.00 0.00 79 1015.2
20220702061730 60 88 1.0 2.0 0.00 0.00 0.00 79 1015.2
20220702061231 60 90 1.0 2.0 0.00 0.00 0.00 78 1015.3
20220702060730 60 90 1.0 2.0 0.00 0.00 0.00 78 1015.3
20220702060230 60 88 1.0 2.0 0.00 0.00 0.00 78 1015.3
20220702055731 60 101 1.0 3.0 0.00 0.00 0.00 78 1015.4
20220702055231 60 106 2.0 3.0 0.00 0.00 0.00 78 1015.4
20220702054730 60 69 1.0 2.0 0.00 0.00 0.00 78 1015.4
20220702054231 60 38 1.0 3.0 0.00 0.00 0.00 78 1015.4
20220702053730 60 59 2.0 3.0 0.00 0.00 0.00 77 1015.4
20220702053230 60 10 3.0 5.0 0.00 0.00 0.00 77 1015.4
20220702052731 60 38 3.0 5.0 0.00 0.00 0.00 76 1015.4
20220702052230 61 10 2.0 5.0 0.00 0.00 0.00 76 1015.3
20220702051731 61 2 3.0 6.0 0.00 0.00 0.00 76 1015.3
20220702051230 61 14 2.0 3.0 0.00 0.00 0.00 76 1015.2
20220702050731 61 71 2.0 5.0 0.00 0.00 0.00 76 1015.1
20220702050230 61 48 2.0 7.0 0.00 0.00 0.00 76 1015.1
20220702045730 61 37 5.0 7.0 0.00 0.00 0.00 75 1015.2
20220702045230 61 25 2.0 5.0 0.00 0.00 0.00 75 1015.1
20220702044730 61 29 2.0 6.0 0.00 0.00 0.00 75 1015.1
20220702044231 62 56 2.0 6.0 0.00 0.00 0.00 75 1015.0
20220702043730 62 35 1.0 3.0 0.00 0.00 0.00 74 1015.0
20220702043230 62 38 1.0 5.0 0.00 0.00 0.00 73 1014.9
20220702042730 62 350 2.0 3.0 0.00 0.00 0.00 73 1014.9
20220702042230 62 31 1.0 3.0 0.00 0.00 0.00 73 1014.8
20220702041731 62 29 1.0 3.0 0.00 0.00 0.00 72 1014.7
20220702041230 62 22 2.0 3.0 0.00 0.00 0.00 72 1014.6
20220702040731 63 0 1.0 3.0 0.00 0.00 0.00 72 1014.6
20220702040231 63 343 1.0 3.0 0.00 0.00 0.00 71 1014.6
20220702035731 63 346 1.0 3.0 0.00 0.00 0.00 70 1014.6
20220702035230 63 0 1.0 2.0 0.00 0.00 0.00 70 1014.5
20220702034731 64 9 2.0 5.0 0.00 0.00 0.00 69 1014.5
20220702034230 64 351 2.0 5.0 0.00 0.00 0.00 69 1014.5
20220702033730 64 14 2.0 3.0 0.00 0.00 0.00 69 1014.5
20220702033230 65 34 2.0 6.0 0.00 0.00 0.00 68 1014.4
20220702032731 65 8 2.0 3.0 0.00 0.00 0.00 68 1014.4
20220702032230 65 18 1.0 5.0 0.00 0.00 0.00 67 1014.3
20220702031730 65 25 2.0 3.0 0.00 0.00 0.00 66 1014.3
20220702031231 66 2 2.0 5.0 0.00 0.00 0.00 66 1014.2
20220702030730 66 23 2.0 6.0 0.00 0.00 0.00 66 1014.2
20220702030230 66 326 1.0 3.0 0.00 0.00 0.00 65 1014.2
20220702025730 66 28 2.0 6.0 0.00 0.00 0.00 65 1014.2
20220702025231 67 8 1.0 7.0 0.00 0.00 0.00 65 1014.2
20220702024730 67 22 1.0 3.0 0.00 0.00 0.00 65 1014.2
20220702024230 67 0 2.0 7.0 0.00 0.00 0.00 65 1014.2
20220702023730 68 337 3.0 8.0 0.00 0.00 0.00 65 1014.2
20220702023230 68 61 2.0 6.0 0.00 0.00 0.00 64 1014.1
20220702022730 68 35 3.0 8.0 0.00 0.00 0.00 63 1014.0
20220702022231 68 39 5.0 7.0 0.00 0.00 0.00 62 1014.0
20220702021731 69 0 3.0 10.0 0.00 0.00 0.00 62 1013.9
20220702021230 69 30 2.0 6.0 0.00 0.00 0.00 62 1013.9
20220702020731 69 7 3.0 6.0 0.00 0.00 0.00 61 1013.9
20220702020231 69 2 3.0 7.0 0.00 0.00 0.00 61 1013.9
20220702015731 70 351 2.0 6.0 0.00 0.00 0.00 60 1013.9
20220702015230 70 355 2.0 9.0 0.00 0.00 0.00 60 1013.9
20220702014731 70 323 2.0 7.0 0.00 0.00 0.00 60 1013.9
20220702014231 70 6 2.0 5.0 0.00 0.00 0.00 59 1013.8
20220702013730 70 4 3.0 7.0 0.00 0.00 0.00 58 1013.8
20220702013230 71 347 3.0 7.0 0.00 0.00 0.00 57 1013.8
20220702012731 71 355 2.0 8.0 0.00 0.00 0.00 57 1013.8
20220702012230 71 2 3.0 7.0 0.00 0.00 0.00 57 1013.7
20220702011731 71 14 2.0 6.0 0.00 0.00 0.00 56 1013.8
20220702011230 72 358 3.0 7.0 0.00 0.00 0.00 56 1013.7
20220702010730 72 1 4.0 9.0 0.00 0.00 0.00 56 1013.6
20220702010230 72 5 3.0 7.0 0.00 0.00 0.00 56 1013.7
20220702005731 72 328 2.0 6.0 0.00 0.00 0.00 55 1013.6
20220702005232 73 16 4.0 7.0 0.00 0.00 0.00 55 1013.7
20220702004730 73 5 2.0 10.0 0.00 0.00 0.00 54 1013.6
20220702004230 73 9 2.0 8.0 0.00 0.00 0.00 54 1013.7
20220702003730 73 40 4.0 8.0 0.00 0.00 0.00 54 1013.8
20220702003230 73 354 3.0 7.0 0.00 0.00 0.00 54 1013.8
20220702002730 74 332 3.0 8.0 0.00 0.00 0.00 53 1013.8
20220702002231 74 358 2.0 7.0 0.00 0.00 0.00 53 1013.9
20220702001731 74 338 3.0 7.0 0.00 0.00 0.00 53 1013.9
20220702001230 74 350 3.0 8.0 0.00 0.00 0.00 52 1013.9
20220702000731 74 21 4.0 8.0 0.00 0.00 0.00 52 1013.9
20220702000231 75 358 2.0 6.0 0.00 0.00 0.00 51 1013.9
20220701235731 75 6 4.0 10.0 0.00 0.00 0.00 51 1013.9
20220701235230 75 354 3.0 7.0 0.00 0.00 0.00 51 1013.9
20220701234731 75 3 4.0 8.0 0.00 0.00 0.00 51 1014.0
20220701234230 75 11 4.0 9.0 0.00 0.00 0.00 51 1014.0
20220701233730 75 336 3.0 8.0 0.00 0.00 0.00 51 1014.0
20220701233230 75 332 2.0 5.0 0.00 0.00 0.00 51 1014.0
20220701232731 75 13 3.0 7.0 0.00 0.00 0.00 51 1014.1
20220701232230 75 0 2.0 6.0 0.00 0.00 0.00 51 1014.1
20220701231730 75 13 3.0 7.0 0.00 0.00 0.00 50 1014.2
20220701231230 75 0 3.0 7.0 0.00 0.00 0.00 50 1014.2
20220701230731 75 357 2.0 7.0 0.00 0.00 0.00 50 1014.3
20220701230230 75 341 3.0 7.0 0.00 0.00 0.00 51 1014.4
20220701225730 75 8 3.0 8.0 0.00 0.00 0.00 50 1014.4
20220701225230 75 356 3.0 6.0 0.00 0.00 0.00 50 1014.4
20220701224730 75 1 4.0 7.0 0.00 0.00 0.00 51 1014.4
20220701224231 75 330 3.0 7.0 0.00 0.00 0.00 50 1014.4
20220701223730 75 348 5.0 10.0 0.00 0.00 0.00 50 1014.4
20220701223231 75 356 5.0 12.0 0.00 0.00 0.00 50 1014.5
20220701222731 75 358 3.0 6.0 0.00 0.00 0.00 51 1014.5
20220701222230 75 343 2.0 6.0 0.00 0.00 0.00 51 1014.6
20220701221731 76 353 3.0 8.0 0.00 0.00 0.00 50 1014.6
20220701221230 76 351 5.0 12.0 0.00 0.00 0.00 50 1014.6
20220701220731 76 0 4.0 9.0 0.00 0.00 0.00 50 1014.7
20220701220230 75 39 3.0 10.0 0.00 0.00 0.00 51 1014.6
20220701215730 75 357 3.0 7.0 0.00 0.00 0.00 51 1014.7
20220701215230 75 348 2.0 6.0 0.00 0.00 0.00 51 1014.7
20220701214731 75 9 5.0 9.0 0.00 0.00 0.00 51 1014.7
20220701214230 75 7 4.0 10.0 0.00 0.00 0.00 51 1014.7
20220701213730 75 26 5.0 8.0 0.00 0.00 0.00 51 1014.8
20220701213230 75 349 2.0 7.0 0.00 0.00 0.00 51 1014.8
20220701212731 75 12 2.0 8.0 0.00 0.00 0.00 51 1014.8
20220701212230 75 331 3.0 10.0 0.00 0.00 0.00 50 1014.9
20220701211731 75 325 2.0 8.0 0.00 0.00 0.00 51 1014.9
20220701211230 75 348 2.0 10.0 0.00 0.00 0.00 50 1014.9
20220701210730 76 333 3.0 12.0 0.00 0.00 0.00 50 1014.9
20220701210230 75 329 2.0 7.0 0.00 0.00 0.00 50 1014.9
20220701205730 76 9 6.0 12.0 0.00 0.00 0.00 50 1014.9
20220701205231 76 27 5.0 13.0 0.00 0.00 0.00 50 1014.9
20220701204730 76 346 2.0 8.0 0.00 0.00 0.00 50 1014.9
20220701204230 76 333 3.0 8.0 0.00 0.00 0.00 50 1014.9
20220701203730 76 338 3.0 10.0 0.00 0.00 0.00 50 1015.0
20220701203230 76 348 4.0 8.0 0.00 0.00 0.00 50 1014.9
20220701202730 76 350 3.0 7.0 0.00 0.00 0.00 50 1014.9
20220701202230 76 5 3.0 8.0 0.00 0.00 0.00 50 1015.0
20220701201730 76 6 5.0 9.0 0.00 0.00 0.00 49 1015.0
20220701201231 76 334 3.0 8.0 0.00 0.00 0.00 49 1015.1
20220701200730 76 359 2.0 7.0 0.00 0.00 0.00 50 1015.0
20220701200230 76 319 2.0 8.0 0.00 0.00 0.00 50 1015.1
20220701195730 76 2 3.0 8.0 0.00 0.00 0.00 50 1015.1
20220701195231 75 43 3.0 7.0 0.00 0.00 0.00 50 1015.1
20220701194730 75 354 4.0 8.0 0.00 0.00 0.00 50 1015.3
20220701194230 75 9 4.0 8.0 0.00 0.00 0.00 50 1015.3
20220701193731 75 2 5.0 10.0 0.00 0.00 0.00 51 1015.4
20220701193230 75 1 3.0 8.0 0.00 0.00 0.00 51 1015.4
20220701192730 75 33 4.0 7.0 0.00 0.00 0.00 51 1015.4
20220701192230 74 331 3.0 7.0 0.00 0.00 0.00 51 1015.4
20220701191730 74 29 5.0 9.0 0.00 0.00 0.00 51 1015.5
20220701191230 74 348 3.0 7.0 0.00 0.00 0.00 51 1015.4
20220701190730 73 42 2.0 7.0 0.00 0.00 0.00 50 1015.5
20220701190230 73 359 1.0 6.0 0.00 0.00 0.00 50 1015.5
20220701185730 73 348 2.0 8.0 0.00 0.00 0.00 51 1015.5
20220701185231 72 51 4.0 7.0 0.00 0.00 0.00 52 1015.6
20220701184730 72 26 5.0 8.0 0.00 0.00 0.00 52 1015.7
20220701184230 71 61 3.0 8.0 0.00 0.00 0.00 52 1015.7
20220701183730 71 32 3.0 7.0 0.00 0.00 0.00 54 1015.8
20220701183230 71 61 4.0 7.0 0.00 0.00 0.00 53 1015.9
20220701182730 70 351 1.0 2.0 0.00 0.00 0.00 54 1015.9
20220701182231 70 346 3.0 6.0 0.00 0.00 0.00 53 1016.0
20220701181730 69 352 2.0 3.0 0.00 0.00 0.00 55 1016.0
20220701181231 69 320 1.0 3.0 0.00 0.00 0.00 56 1016.0
20220701180730 69 234 1.0 5.0 0.00 0.00 0.00 55 1016.0
20220701180230 69 297 2.0 5.0 0.00 0.00 0.00 56 1016.0
20220701175731 68 11 2.0 6.0 0.00 0.00 0.00 58 1016.0
20220701175230 68 64 3.0 6.0 0.00 0.00 0.00 57 1016.0
20220701174731 67 35 2.0 6.0 0.00 0.00 0.00 59 1016.1
20220701174230 67 354 2.0 8.0 0.00 0.00 0.00 59 1016.1
20220701173730 67 46 3.0 8.0 0.00 0.00 0.00 60 1016.1
20220701173230 66 317 1.0 6.0 0.00 0.00 0.00 60 1016.1
20220701172730 66 347 2.0 3.0 0.00 0.00 0.00 61 1016.1
20220701172230 66 305 1.0 5.0 0.00 0.00 0.00 61 1016.1
20220701171731 65 0 2.0 3.0 0.00 0.00 0.00 63 1016.1
20220701171230 65 53 2.0 5.0 0.00 0.00 0.00 64 1016.1
20220701170730 65 33 2.0 3.0 0.00 0.00 0.00 65 1016.1
20220701170230 64 250 1.0 3.0 0.00 0.00 0.00 65 1016.1
20220701165730 64 2 2.0 6.0 0.00 0.00 0.00 65 1016.2
20220701165230 64 253 1.0 5.0 0.00 0.00 0.00 65 1016.2
20220701164730 63 317 2.0 3.0 0.00 0.00 0.00 67 1016.2
20220701164230 63 51 1.0 6.0 0.00 0.00 0.00 67 1016.2
20220701163730 63 45 1.0 3.0 0.00 0.00 0.00 69 1016.3
20220701163230 62 82 2.0 3.0 0.00 0.00 0.00 69 1016.3
20220701162731 62 49 2.0 5.0 0.00 0.00 0.00 69 1016.3
20220701162230 62 57 2.0 5.0 0.00 0.00 0.00 69 1016.4
20220701161730 62 326 1.0 3.0 0.00 0.00 0.00 70 1016.4
20220701161230 62 223 1.0 3.0 0.00 0.00 0.00 71 1016.4
20220701160730 61 254 1.0 2.0 0.00 0.00 0.00 72 1016.5
20220701160230 61 308 1.0 2.0 0.00 0.00 0.00 71 1016.5
20220701155730 61 16 1.0 3.0 0.00 0.00 0.00 73 1016.5
20220701155231 61 27 2.0 5.0 0.00 0.00 0.00 73 1016.4
20220701154730 60 41 1.0 3.0 0.00 0.00 0.00 75 1016.5
20220701154231 60 62 3.0 5.0 0.00 0.00 0.00 75 1016.5
20220701153730 60 74 1.0 3.0 0.00 0.00 0.00 75 1016.5
20220701153230 60 78 2.0 3.0 0.00 0.00 0.00 75 1016.5
20220701152730 60 91 2.0 3.0 0.00 0.00 0.00 76 1016.5
20220701152231 59 263 1.0 2.0 0.00 0.00 0.00 75 1016.6
20220701151730 59 99 2.0 3.0 0.00 0.00 0.00 77 1016.6
20220701151230 59 45 1.0 3.0 0.00 0.00 0.00 77 1016.6
20220701150730 59 90 2.0 3.0 0.00 0.00 0.00 78 1016.6
20220701150230 59 43 1.0 3.0 0.00 0.00 0.00 78 1016.6
20220701145730 58 79 1.0 3.0 0.00 0.00 0.00 78 1016.5
20220701145230 58 106 1.0 2.0 0.00 0.00 0.00 78 1016.5
20220701144730 58 200 1.0 3.0 0.00 0.00 0.00 79 1016.5
20220701144230 58 0 1.0 2.0 0.00 0.00 0.00 79 1016.4
20220701143730 58 11 1.0 2.0 0.00 0.00 0.00 79 1016.4
20220701143231 58 32 3.0 5.0 0.00 0.00 0.00 79 1016.4
20220701142730 58 76 2.0 3.0 0.00 0.00 0.00 79 1016.4
20220701142230 58 14 1.0 2.0 0.00 0.00 0.00 79 1016.3
20220701141730 58 33 1.0 2.0 0.00 0.00 0.00 79 1016.3
20220701141230 58 11 2.0 3.0 0.00 0.00 0.00 79 1016.3
20220701140731 58 88 1.0 3.0 0.00 0.00 0.00 79 1016.3
20220701140230 57 20 1.0 3.0 0.00 0.00 0.00 79 1016.4
20220701135731 57 50 2.0 5.0 0.00 0.00 0.00 79 1016.3
20220701135230 57 237 0.0 1.0 0.00 0.00 0.00 79 1016.3
20220701134730 57 237 0.0 2.0 0.00 0.00 0.00 79 1016.3
20220701134230 57 237 1.0 3.0 0.00 0.00 0.00 79 1016.3
20220701133730 57 279 1.0 2.0 0.00 0.00 0.00 79 1016.3
20220701133230 57 322 1.0 2.0 0.00 0.00 0.00 79 1016.3
20220701132730 57 349 0.0 2.0 0.00 0.00 0.00 80 1016.3
20220701132230 57 22 2.0 3.0 0.00 0.00 0.00 80 1016.3
20220701131730 57 13 0.0 2.0 0.00 0.00 0.00 80 1016.2
20220701131230 57 44 1.0 3.0 0.00 0.00 0.00 80 1016.2
20220701130730 57 52 1.0 2.0 0.00 0.00 0.00 80 1016.2
20220701130230 57 52 0.0 1.0 0.00 0.00 0.00 79 1016.1
20220701125730 57 52 0.0 2.0 0.00 0.00 0.00 80 1016.1
20220701125230 57 155 0.0 1.0 0.00 0.00 0.00 80 1016.1
20220701124731 57 155 0.0 2.0 0.00 0.00 0.00 80 1016.1
20220701124230 57 155 1.0 3.0 0.00 0.00 0.00 80 1016.1
20220701123730 57 174 1.0 2.0 0.00 0.00 0.00 80 1016.0
20220701123230 57 174 1.0 3.0 0.00 0.00 0.00 80 1016.0
20220701122731 57 164 1.0 3.0 0.00 0.00 0.00 80 1016.0
20220701122230 57 110 2.0 5.0 0.00 0.00 0.00 80 1016.0
20220701121730 57 98 2.0 5.0 0.00 0.00 0.00 80 1016.0
20220701121230 57 90 1.0 3.0 0.00 0.00 0.00 80 1015.9
20220701120730 57 202 0.0 1.0 0.00 0.00 0.00 80 1015.9
20220701120230 57 203 1.0 2.0 0.00 0.00 0.00 80 1016.0
20220701115730 58 211 0.0 2.0 0.00 0.00 0.00 80 1015.9
20220701115230 57 212 1.0 2.0 0.00 0.00 0.00 80 1015.9
20220701114730 57 199 1.0 2.0 0.00 0.00 0.00 80 1015.9
20220701114230 58 176 2.0 3.0 0.00 0.00 0.00 80 1016.0
20220701113730 58 212 2.0 3.0 0.00 0.00 0.00 80 1016.0
20220701113230 58 184 1.0 3.0 0.00 0.00 0.00 80 1016.0
20220701112730 58 204 1.0 3.0 0.00 0.00 0.00 80 1016.0
20220701112230 58 209 1.0 3.0 0.00 0.00 0.00 79 1016.0
20220701111730 58 162 0.0 2.0 0.00 0.00 0.00 79 1016.0
20220701111230 58 162 1.0 3.0 0.00 0.00 0.00 79 1016.0
20220701110730 58 175 0.0 2.0 0.00 0.00 0.00 79 1016.0
20220701110230 58 175 1.0 2.0 0.00 0.00 0.00 79 1016.0
20220701105730 58 174 0.0 1.0 0.00 0.00 0.00 79 1016.0
20220701105230 58 175 1.0 2.0 0.00 0.00 0.00 79 1016.0
20220701104730 58 175 1.0 2.0 0.00 0.00 0.00 79 1016.0
20220701104231 58 117 1.0 6.0 0.00 0.00 0.00 79 1016.0
20220701103730 58 109 2.0 3.0 0.00 0.00 0.00 79 1016.0
20220701103230 58 81 1.0 2.0 0.00 0.00 0.00 79 1016.0
20220701102730 58 86 1.0 2.0 0.00 0.00 0.00 79 1016.0
20220701102231 58 95 0.0 2.0 0.00 0.00 0.00 79 1016.0
20220701101730 58 93 2.0 3.0 0.00 0.00 0.00 79 1016.0
20220701101230 58 50 2.0 3.0 0.00 0.00 0.00 79 1016.0
20220701100730 58 51 2.0 3.0 0.00 0.00 0.00 79 1016.0
20220701100230 58 67 2.0 5.0 0.00 0.00 0.00 79 1016.0
20220701095731 58 102 2.0 3.0 0.00 0.00 0.00 79 1016.0
20220701095230 58 76 2.0 3.0 0.00 0.00 0.00 80 1016.0
20220701094731 58 60 2.0 5.0 0.00 0.00 0.00 79 1016.0
20220701094230 59 70 2.0 5.0 0.00 0.00 0.00 80 1016.0
20220701093730 59 64 0.0 2.0 0.00 0.00 0.00 80 1016.0
20220701093231 59 64 0.0 2.0 0.00 0.00 0.00 80 1016.0
20220701092730 59 62 2.0 3.0 0.00 0.00 0.00 79 1016.1
20220701092229 59 55 2.0 3.0 0.00 0.00 0.00 79 1016.1
20220701091730 59 27 1.0 2.0 0.00 0.00 0.00 79 1016.1
20220701091230 59 90 1.0 3.0 0.00 0.00 0.00 79 1016.2
20220701090730 59 41 2.0 5.0 0.00 0.00 0.00 79 1016.2
20220701090230 59 79 2.0 3.0 0.00 0.00 0.00 79 1016.2
20220701085730 59 40 2.0 3.0 0.00 0.00 0.00 79 1016.2
20220701085230 59 27 1.0 2.0 0.00 0.00 0.00 79 1016.2
20220701084730 59 0 1.0 3.0 0.00 0.00 0.00 78 1016.2
20220701084230 59 31 1.0 3.0 0.00 0.00 0.00 79 1016.2
20220701083730 59 52 1.0 3.0 0.00 0.00 0.00 79 1016.2
20220701083230 59 56 2.0 6.0 0.00 0.00 0.00 79 1016.1
20220701082730 59 100 3.0 6.0 0.00 0.00 0.00 79 1016.1
20220701082230 59 53 2.0 6.0 0.00 0.00 0.00 79 1016.1
20220701081730 59 35 3.0 6.0 0.00 0.00 0.00 79 1016.1
20220701081230 59 65 2.0 5.0 0.00 0.00 0.00 79 1016.1
20220701080730 59 39 2.0 5.0 0.00 0.00 0.00 79 1016.1
20220701080230 59 55 2.0 3.0 0.00 0.00 0.00 79 1016.1
20220701075731 59 45 2.0 3.0 0.00 0.00 0.00 79 1016.1
20220701075230 59 45 2.0 5.0 0.00 0.00 0.00 79 1016.1
20220701074731 59 29 2.0 5.0 0.00 0.00 0.00 79 1016.2
20220701074230 59 36 3.0 5.0 0.00 0.00 0.00 79 1016.2
20220701073731 59 27 2.0 5.0 0.00 0.00 0.00 79 1016.1
20220701073230 59 116 1.0 2.0 0.00 0.00 0.00 79 1016.2
20220701072730 60 116 1.0 3.0 0.00 0.00 0.00 80 1016.2